Calgary Springbank,

7:43 AM MDT on July 21, 2017 (GMT -0600)
Calgary Springbank

Weather History for CYBW - January, 2012

Change the Weather History Date:

Sunday, January 22, 2012

  Actual Average Record
Temperature  
Mean Temperature 18 °F -  
Max Temperature 30 °F 28 °F 46 °F (2005)
Min Temperature 7 °F 7 °F -23 °F (2003)
Degree Days  
Heating Degree Days 46    
Moisture  
Dew Point 16 °F    
Average Humidity 78    
Maximum Humidity 100    
Minimum Humidity 54    
Precipitation  
Precipitation 0.00 in - - ()
Sea Level Pressure  
Sea Level Pressure 29.75 in    
Wind  
Wind Speed 4 mph ()    
Max Wind Speed 8 mph    
Max Gust Speed -    
Visibility 14.3 miles    
Events Fog , Snow    
Averages and records for this station are not official NWS values.
T = Trace of Precipitation, MM = Missing Value Source: Averaged Metar Reports

Daily Weather History Graph

Daily Weather History Graph

Search for Another Location

Airport or City:

Trip Planner

Search our weather history database for the weather conditions in past years. The results will help you decide how hot, cold, wet, or windy it might be!

Date:

Astronomy

Jan. 22, 2012 Rise Set
Actual Time 8:28 AM MST 5:10 PM MST
Civil Twilight 7:50 AM MST 5:47 PM MST
Nautical Twilight 7:10 AM MST 6:28 PM MST
Astronomical Twilight 6:30 AM MST 7:07 PM MST
Moon 7:46 AM MST (1/22) 4:59 PM MST (1/22)
Length of Visible Light 9h 56m
Length of Day
8h 42m
Waning Crescent, 0% of the Moon is Illuminated
Jan 22
Waning Crescent
Jan 23
New
Jan 30
First Quarter
Feb 7
Full
Feb 14
Last Quarter

Hourly Weather History & Observations

Time (MST) Temp. Windchill Dew Point Humidity Pressure Visibility Wind Dir Wind Speed Gust Speed Precip Events Conditions
5:00 AM 21 °F - 18 °F 82% 29.75 in 15 mi South 5.8 mph - -   Clear
5:00 AM 21.2 °F 13.6 °F 17.6 °F 86% 29.75 in 15.0 mi South 5.8 mph - N/A   Mostly Cloudy
6:00 AM 19.4 °F 11.5 °F 17.6 °F 93% 29.77 in 15.0 mi South 5.8 mph - N/A   Partly Cloudy
7:00 AM 17.6 °F 9.3 °F 15.8 °F 93% 29.78 in 8.0 mi SSE 5.8 mph - N/A   Scattered Clouds
9:00 AM 12.2 °F - 12.2 °F 100% 29.81 in 15.0 mi SSE 2.3 mph - N/A Snow Light Snow
9:32 AM - - - N/A% - 25.0 mi SSW 5.8 mph - N/A   Overcast
10:00 AM 19.4 °F 12.8 °F 17.6 °F 93% 29.82 in 30.0 mi South 4.6 mph - N/A Fog Shallow Fog
11:00 AM 20 °F - 19 °F 93% 29.85 in 28 mi South 3.5 mph - -   Partly Cloudy
11:00 AM 21.2 °F 11.7 °F 19.4 °F 93% 29.85 in 30.0 mi South 8.1 mph - N/A   Mostly Cloudy
12:00 PM 23.0 °F 18.4 °F 19.4 °F 86% 29.84 in 30.0 mi South 3.5 mph - N/A   Partly Cloudy
1:00 PM 26.6 °F - 21.2 °F 80% 29.82 in 30.0 mi Calm Calm - N/A   Mostly Cloudy
2:00 PM 28.4 °F 23.3 °F 17.6 °F 64% 29.76 in 30.0 mi SSE 4.6 mph - N/A   Mostly Cloudy
3:00 PM 30.2 °F 26.7 °F 15.8 °F 55% 29.75 in 30.0 mi SSE 3.5 mph - N/A   Mostly Cloudy
4:00 PM 26.6 °F 22.6 °F 14.0 °F 59% 29.73 in 30.0 mi South 3.5 mph - N/A   Mostly Cloudy
5:00 PM 25 °F - 15 °F 54% 29.71 in 28 mi Calm Calm - -   Scattered Clouds
5:00 PM 24.8 °F - 15.8 °F 69% 29.71 in 30.0 mi Calm Calm - N/A   Mostly Cloudy
6:00 PM 23.0 °F - 14.0 °F 68% 29.70 in 15.0 mi SE 2.3 mph - N/A   Mostly Cloudy
7:00 PM 21.2 °F - 14.0 °F 74% 29.67 in 15.0 mi West 2.3 mph - N/A   Overcast
8:00 PM 21.2 °F - 14.0 °F 74% 29.66 in 15.0 mi North 2.3 mph - N/A   Overcast
9:00 PM 19.4 °F - 12.2 °F 74% 29.65 in 15.0 mi Calm Calm - N/A   Overcast
10:00 PM 21.2 °F - 10.4 °F 63% 29.62 in 15.0 mi Calm Calm - N/A   Overcast